Regional Weather Roundup
Issued by NWS

Home | Current Version | Previous Version | Text Only | Print | Product List | Glossary On
Versions: 1 2 3 4 5 6 7 8 9 10 11 12 13 14 15 16 17 18 19 20 21 22 23 24 25 26 27 28 29 30 31 32 33 34 35 36 37 38 39 40 41 42 43 44 45 46 47 48 49 50
000
ASUS46 KSEW 281910
RWRWA

WASHINGTON REGIONAL WEATHER ROUNDUP
NATIONAL WEATHER SERVICE SEATTLE WA
1200 PM PDT TUE JUL 28 2015

NOTE:"FAIR" INDICATES FEW OR NO CLOUDS BELOW 12,000 FEET WITH NO
SIGNIFICANT WEATHER AND/OR OBSTRUCTIONS TO VISIBILITY.

WAZ505-507>509-282000-
SEATTLE, TACOMA, EVERETT, AND VICINITY

CITY           SKY/WX    TMP DP  RH WIND       PRES   REMARKS
EVERETT        SUNNY     67  53  61 VRB5      30.29S
BOEING FIELD   MOSUNNY   73  53  49 VRB5      30.26F
RENTON         SUNNY     72  53  51 NW10      30.26F
SEATAC AIRPORT MOSUNNY   73  51  46 N6        30.28S
JBLM-MCCHORD   SUNNY     73  53  49 N9        30.26F
PUYALLUP       FAIR      75  52  43 VRB7G13   30.26F
BREMERTON      SUNNY     73  52  46 NW3       30.29F
JBLM-FT LEWIS  SUNNY     72  53  51 N7        30.25F
TACOMA NARROWS MOSUNNY   70  51  51 NE7       30.27F
$$

WAZ001-503-506-510-514-515-282000-
NORTH INTERIOR

CITY           SKY/WX    TMP DP  RH WIND       PRES   REMARKS
BELLINGHAM     SUNNY     69  55  60 S5        30.27S
FRIDAY HARBOR  SUNNY     68  54  60 SE6       30.28S
EASTSOUND      SUNNY     66  57  72 N5        30.26S
PORT ANGELES   SUNNY     66  54  65 NW7       30.29S
PORT TOWNSEND  FAIR      70  54  56 CALM      30.27S
NAS WHIDBEY    PTSUNNY   67  51  56 W9        30.32S
ARLINGTON      SUNNY     72  52  49 W3        30.28S
BURLINGTON     SUNNY     72  55  56 VRB5      30.26F
$$

WAZ020-022-039-040-504-511-512-282000-
SOUTHWEST INTERIOR

CITY           SKY/WX    TMP DP  RH WIND       PRES   REMARKS
SHELTON        SUNNY     75  51  43 NE8       30.24S
OLYMPIA        SUNNY     72  52  49 N7        30.26F
CHEHALIS       FAIR      75  55  50 NE9       30.25F
KELSO          SUNNY     73  54  49 NW10G16   30.25F
VANCOUVER      SUNNY     74  52  46 VRB5      30.21F
SCAPPOOSE, OR  SUNNY     77  51  40 VRB7      30.20F
PORTLAND, OR   MOSUNNY   73  54  51 VRB5      30.21F
$$

WAZ021-516-517-282000-
WASHINGTON COAST

CITY           SKY/WX    TMP DP  RH WIND       PRES   REMARKS
FORKS          SUNNY     71  59  65 W7        30.28S
HOQUIAM        SUNNY     68  56  65 SW8       30.26F
ASTORIA, OR    SUNNY     72  54  53 N5        30.24S
$$

WAZ019-023-024-040-518-519-282000-
CASCADE MOUNTAINS AND COLUMBIA GORGE

CITY           SKY/WX    TMP DP  RH WIND       PRES   REMARKS
TROUTDALE, OR  SUNNY     73  53  49 W5        30.20F
THE DALLES, OR SUNNY     78  44  29 VRB5      30.18F
$$

WAZ026-027-041>044-520-521-282000-
EAST SLOPES

CITY           SKY/WX    TMP DP  RH WIND       PRES   REMARKS
OMAK           SUNNY     81  38  21 N10       30.18F
WENATCHEE      SUNNY     77  40  26 VRB3      30.20S
ELLENSBURG     SUNNY     78  42  27 CALM      30.22S
YAKIMA         SUNNY     80  39  23 CALM      30.21F
$$

WAZ028-034-035-282000-
COLUMBIA BASIN

CITY           SKY/WX    TMP DP  RH WIND       PRES   REMARKS
EPHRATA        SUNNY     79  40  24 S13G18    30.20R
MOSES LAKE     SUNNY     77  42  28 S6        30.21S
PASCO          MOSUNNY   79  44  28 W9        30.20F
HERMISTON, OR  SUNNY     76  44  32 CALM      30.20F
$$

WAZ036>038-282000-
NORTHEAST WASHINGTON

CITY           SKY/WX    TMP DP  RH WIND       PRES   REMARKS
SPOKANE GEIGER MOSUNNY   71  40  32 S5        30.23S
SPOKANE FELTS  SUNNY     74  41  30 CALM      30.22F
FAIRCHILD AFB  SUNNY     72  40  30 SW6       30.23S
COEURDALENE,ID SUNNY     73  45  35 W8G17     30.22F
DEER PARK      SUNNY     73  42  32 S9        30.22F
$$

WAZ029>033-282000-
SOUTHEAST WASHINGTON

CITY           SKY/WX    TMP DP  RH WIND       PRES   REMARKS
PULLMAN        SUNNY     71  42  35 VRB6      30.27F
LEWISTON, ID   SUNNY     76  43  30 NW6       30.23F
WALLA WALLA    SUNNY     76  42  29 W6        30.22F
PENDLETON, OR  SUNNY     75  41  29 NW7       30.22F
$$


USA.gov is the U.S. government's official web portal to all federal, state and local government web resources and services.